View from above orbital plane
|
View from above satellite
|
Ground track
|
The orbit data is extracted from the following two-line orbital elements,
1 20580U 90037B 21056.47038756 .00000726 00000-0 33036-4 0 9992
2 20580 28.4699 85.9984 0002432 299.4802 217.4594 15.09565505494159
Epoch (UTC): | 25 February 2021 11:17:21 |
Eccentricity: | 0.0002432 |
inclination: | 28.4699° |
perigee height: | 536 km |
apogee height: | 539 km |
right ascension of ascending node: | 85.9984° |
argument of perigee: | 299.4802° |
revolutions per day: | 15.09565505 |
mean anomaly at epoch: | 217.4594° |
orbit number at epoch: | 49415 |
The dashed part of the orbit path shows where the satellite is in the earth's shadow,
|
|